[[{"header":{"parameterUnit":"m.s-1","parameterCategory":1,"la1":30.2991,"la2":30.254,"lo1":-89.0895,"lo2":-89.0444,"dy":0.0017,"dx":0.0017,"nx":28,"ny":28,"refTime":"2023-11-17T09:00:00:Z","depth":0,"parameterNumber":2,"parameterNumberName":"U-component_of_WINDS"},"data":[0,0,0,0,0,0,0,0,0,0,0,0,0,0,0,0,0,0,0,0,0,0,0,0,0,0,0,0,0,0,0,0,0,0,0,0,0,0,0,0,0,0,0,0,0,0,0,0,0,0,0,0,0,0,0,0,0,0,-1.1707,-1.1708,0,-1.1755,-1.1755,-1.1756,-1.1742,-1.1741,-1.174,-1.1739,-1.1792,-1.1794,-1.1796,0,0,0,0,0,0,0,0,0,0,0,0,0,-1.161,-1.1612,-1.1707,-1.1708,-1.1709,-1.1754,-1.1755,-1.1756,-1.1742,-1.174,-1.1739,-1.1738,-1.1791,-1.1794,-1.1797,0,0,0,0,0,0,0,0,0,0,0,0,0,-1.1655,-1.1613,-1.1707,-1.1707,-1.1707,-1.1754,-1.1755,-1.1756,-1.1742,-1.174,-1.1739,-1.1738,-1.179,-1.1793,-1.1797,-1.1848,0,0,-1.1808,-1.1809,0,0,0,0,0,0,0,0,-1.1652,-1.1658,-1.1706,-1.1707,-1.1708,-1.174,-1.174,-1.1787,-1.1742,-1.1729,-1.1739,-1.1737,-1.1776,-1.1781,-1.1793,-1.1851,-1.1853,-1.1808,-1.181,-1.1812,-1.1813,0,0,0,0,0,0,0,-1.1649,-1.1656,-1.1726,-1.1707,-1.1708,-1.1706,-1.1711,-1.1749,-1.1761,-1.173,-1.1729,-1.1735,-1.1776,-1.179,-1.1794,-1.1854,-1.1808,-1.1811,-1.1813,-1.1815,-1.1958,-1.196,0,0,0,0,0,0,-1.1645,-1.1654,-1.1725,-1.1728,-1.1675,-1.1709,-1.1714,-1.1732,-1.176,-1.1763,-1.1736,-1.1734,-1.1784,-1.179,-1.1796,-1.1859,-1.1812,-1.1815,-1.1817,-1.1957,-1.1959,-1.1961,0,0,0,0,0,0,-1.1643,-1.1651,-1.1723,-1.169,-1.1699,-1.1712,-1.1732,-1.1733,-1.1747,-1.1764,-1.1767,-1.1747,-1.1783,-1.1791,-1.1836,-1.1861,-1.1816,-1.182,-1.1955,-1.1957,-1.196,-1.1985,0,0,0,0,0,0,-1.164,-1.1651,-1.1669,-1.1691,-1.1701,-1.176,-1.1733,-1.1735,-1.1752,-1.175,-1.1776,-1.1779,-1.1783,-1.183,-1.1839,-1.1865,-1.1822,-1.1952,-1.1956,-1.1959,-1.1982,-1.1989,-1.1994,0,0,0,0,0,-1.1637,-1.1675,-1.167,-1.1679,-1.1724,-1.1761,-1.1768,-1.177,-1.1754,-1.1774,-1.1785,-1.1778,-1.1856,-1.1835,-1.1845,-1.1872,-1.1951,-1.1955,-1.1959,-1.198,-1.1987,-1.1994,0,0,0,0,0,0,-1.1658,-1.1678,-1.1673,-1.1719,-1.1738,-1.1759,-1.1784,-1.1778,-1.1804,-1.1801,-1.1805,-1.1811,-1.1856,-1.1869,-1.1844,-1.1924,-1.1902,-1.1908,-1.1914,-1.1922,-1.1927,-1.1924,-1.1825,0,0,0,0,0,-1.1668,-1.1695,-1.1712,-1.1751,-1.1761,-1.1771,-1.1787,-1.1787,-1.1808,-1.1817,-1.1832,-1.1854,-1.1884,-1.1903,-1.1932,-1.1984,-1.199,-1.2008,-1.2013,-1.2018,-1.2023,-1.2053,-1.2062,-1.1973,-1.1973,-1.1973,0,0,-1.1689,-1.1703,-1.172,-1.1756,-1.1771,-1.18,-1.1778,-1.181,-1.1832,-1.1822,-1.1865,-1.1877,-1.1902,-1.1951,-1.1973,-1.1962,-1.2049,-1.2023,-1.2026,-1.2029,-1.2058,-1.2067,-1.2074,-1.1976,-1.1975,-1.1975,0,0,-1.1742,-1.1755,-1.179,-1.1806,-1.1828,-1.1834,-1.1843,-1.1864,-1.1871,-1.1914,-1.1907,-1.1935,-1.1986,-1.2004,-1.202,-1.2081,-1.2076,-1.2091,-1.2121,-1.215,-1.2157,-1.2163,-1.2186,-1.2194,-1.2096,-1.2096,-1.2096,0,-1.1766,-1.1809,-1.1809,-1.1842,-1.1858,-1.1849,-1.1886,-1.1901,-1.1932,-1.1945,-1.1932,-1.1996,-1.2012,-1.2066,-1.2081,-1.2093,-1.2105,-1.2088,-1.2156,-1.2162,-1.2168,-1.219,-1.2198,-1.2098,-1.2097,-1.2097,-1.2097,0,-1.1838,-1.1868,-1.1893,-1.1922,-1.1942,-1.1976,-1.1983,-1.2003,-1.2002,-1.201,-1.2055,-1.2074,-1.2106,-1.2119,-1.2119,-1.2173,-1.2166,-1.2154,-1.2132,-1.2178,-1.2199,-1.2207,-1.21,-1.2099,-1.2099,-1.2098,0,0,-1.1907,-1.1935,-1.1945,-1.1958,-1.1983,-1.2007,-1.2041,-1.2071,-1.2089,-1.2111,-1.2142,-1.2185,-1.2175,-1.2193,-1.2195,-1.222,-1.2269,-1.2206,-1.2207,-1.2218,-1.2332,-1.2341,-1.2351,-1.2265,-1.2267,-1.2268,-1.233,0,-1.1963,-1.2022,-1.2024,-1.2079,-1.2107,-1.2099,-1.213,-1.2149,-1.2158,-1.2185,-1.2195,-1.2226,-1.2209,-1.222,-1.2245,-1.2258,-1.2292,-1.2253,-1.2295,-1.2297,-1.229,-1.2361,-1.2371,-1.2429,-1.2338,-1.234,-1.2341,0,-1.2037,-1.206,-1.2118,-1.2139,-1.2151,-1.2178,-1.2206,-1.2231,-1.2254,-1.2258,-1.2279,-1.2277,-1.2314,-1.229,-1.2343,-1.2316,-1.2333,-1.2342,-1.2345,-1.235,-1.2322,-1.2369,-1.2447,-1.2456,-1.2353,-1.2352,-1.2351,0,-1.2083,-1.2129,-1.2169,-1.2181,-1.2206,-1.2225,-1.2237,-1.2258,-1.2276,-1.2301,-1.2314,-1.2344,-1.2361,-1.2385,-1.2392,-1.2373,-1.2445,-1.2421,-1.2451,-1.2451,-1.2468,-1.2467,-1.255,-1.2477,-1.2477,-1.2477,-1.2477,0,-1.2147,-1.2182,-1.219,-1.2215,-1.2255,-1.2257,-1.2298,-1.2309,-1.2327,-1.2356,-1.2351,-1.2378,-1.2385,-1.2414,-1.242,-1.2464,-1.2471,-1.2477,-1.2479,-1.2478,-1.2478,-1.249,-1.2487,-1.2479,-1.2479,-1.2478,-1.2478,0,-1.2205,-1.2211,-1.2255,-1.2275,-1.2281,-1.231,-1.2328,-1.2353,-1.2361,-1.2397,-1.2405,-1.2419,-1.2453,-1.2462,-1.2503,-1.2507,-1.2559,-1.2556,-1.255,-1.2551,-1.2581,-1.2579,-1.2677,-1.2691,-1.2608,-1.2608,-1.2609,0,-1.2246,-1.2273,-1.2295,-1.2313,-1.2325,-1.2354,-1.2373,-1.2376,-1.2396,-1.2424,-1.2446,-1.2479,-1.2505,-1.256,-1.2575,-1.2607,-1.2605,-1.2637,-1.261,-1.2609,-1.2607,-1.2606,-1.2609,-1.2643,-1.2644,-1.2645,-1.2645,0,-1.2318,-1.2319,-1.2345,-1.2372,-1.2394,-1.2416,-1.2437,-1.2453,-1.246,-1.2482,-1.2516,-1.2537,-1.2578,-1.2611,-1.2643,-1.2658,-1.2654,-1.2653,-1.2663,-1.2663,-1.2659,-1.2663,-1.2566,-1.2652,-1.2651,-1.265,-1.265,-1.265,-1.2369,-1.2393,-1.2413,-1.2442,-1.2458,-1.2478,-1.2503,-1.2513,-1.2541,-1.2574,-1.2575,-1.2612,-1.2635,-1.2677,-1.2693,-1.2723,-1.2714,-1.2727,-1.273,-1.2734,-1.2737,-1.2653,-1.2729,-1.2729,-1.2729,-1.2729,-1.2729,0,-1.2442,-1.2454,-1.2481,-1.251,-1.2533,-1.2525,-1.2548,-1.2569,-1.2601,-1.2622,-1.2648,-1.2688,-1.272,-1.2737,-1.277,-1.2791,-1.279,-1.28,-1.2799,-1.2803,-1.2743,-1.2732,-1.28,-1.28,-1.28,-1.28,-1.28,-1.28,-1.2482,-1.2523,-1.2527,-1.2576,-1.2589,-1.2624,-1.2638,-1.2657,-1.2674,-1.2718,-1.2744,-1.2754,-1.2774,-1.2808,-1.2838,-1.2843,-1.2856,-1.2867,-1.287,-1.2814,-1.2807,-1.28,-1.279,-1.2869,-1.2869,-1.2928,-1.2928,-1.2929]},{"header":{"parameterUnit":"m.s-1","parameterCategory":1,"la1":30.2991,"la2":30.254,"lo1":-89.0895,"lo2":-89.0444,"dy":0.0017,"dx":0.0017,"nx":28,"ny":28,"refTime":"2023-11-17T09:00:00:Z","depth":0,"parameterNumber":3,"parameterNumberName":"V-component_of_WINDS"},"data":[0,0,0,0,0,0,0,0,0,0,0,0,0,0,0,0,0,0,0,0,0,0,0,0,0,0,0,0,0,0,0,0,0,0,0,0,0,0,0,0,0,0,0,0,0,0,0,0,0,0,0,0,0,0,0,0,0,0,-2.3075,-2.3075,0,-2.3073,-2.3073,-2.3073,-2.3018,-2.3017,-2.3016,-2.3014,-2.3012,-2.3013,-2.3014,0,0,0,0,0,0,0,0,0,0,0,0,0,-2.3029,-2.303,-2.3075,-2.3075,-2.3075,-2.3073,-2.3073,-2.3073,-2.3019,-2.3017,-2.3015,-2.3014,-2.3011,-2.3013,-2.3014,0,0,0,0,0,0,0,0,0,0,0,0,0,-2.304,-2.3031,-2.3075,-2.3047,-2.3045,-2.3073,-2.3073,-2.3073,-2.3019,-2.3017,-2.3015,-2.3013,-2.3011,-2.3013,-2.3014,-2.3069,0,0,-2.302,-2.3021,0,0,0,0,0,0,0,0,-2.304,-2.3042,-2.3051,-2.3049,-2.3047,-2.3044,-2.3056,-2.3072,-2.302,-2.3029,-2.3014,-2.3012,-2.3024,-2.3025,-2.3029,-2.3068,-2.3068,-2.302,-2.3021,-2.3022,-2.3023,0,0,0,0,0,0,0,-2.3039,-2.3042,-2.3074,-2.3052,-2.3049,-2.3035,-2.3034,-2.3059,-2.3038,-2.3028,-2.3024,-2.3025,-2.3022,-2.3027,-2.3029,-2.3068,-2.302,-2.3022,-2.3023,-2.3024,-2.3153,-2.3155,0,0,0,0,0,0,-2.3042,-2.3042,-2.3074,-2.3074,-2.3038,-2.3037,-2.3037,-2.3047,-2.3038,-2.3035,-2.3026,-2.3022,-2.3025,-2.3026,-2.3028,-2.3092,-2.3022,-2.3024,-2.3025,-2.3151,-2.3153,-2.3156,0,0,0,0,0,0,-2.3042,-2.3046,-2.3074,-2.3057,-2.3059,-2.304,-2.3053,-2.3048,-2.3053,-2.3037,-2.3033,-2.3035,-2.3024,-2.3026,-2.3059,-2.3091,-2.3025,-2.3027,-2.3148,-2.3152,-2.3155,-2.3219,0,0,0,0,0,0,-2.3041,-2.3046,-2.3066,-2.3058,-2.3061,-2.3106,-2.3054,-2.305,-2.3057,-2.3051,-2.3044,-2.3041,-2.3022,-2.3057,-2.3061,-2.3092,-2.3028,-2.3145,-2.315,-2.3154,-2.3214,-2.3225,-2.3233,0,0,0,0,0,-2.3039,-2.3084,-2.3068,-2.3072,-2.3086,-2.3108,-2.3109,-2.3087,-2.3059,-2.308,-2.307,-2.3041,-2.3087,-2.3061,-2.3065,-2.3097,-2.3143,-2.3148,-2.3153,-2.321,-2.3222,-2.3233,0,0,0,0,0,0,-2.3096,-2.3082,-2.3064,-2.3108,-2.311,-2.3098,-2.3124,-2.3101,-2.311,-2.3104,-2.3075,-2.3074,-2.3113,-2.3108,-2.3079,-2.315,-2.311,-2.3116,-2.3151,-2.3163,-2.3173,-2.3173,-2.303,0,0,0,0,0,-2.3114,-2.3133,-2.312,-2.316,-2.3162,-2.3143,-2.3151,-2.3134,-2.3134,-2.3134,-2.3126,-2.3128,-2.3142,-2.3152,-2.3165,-2.3213,-2.3211,-2.3238,-2.3247,-2.3255,-2.3261,-2.3287,-2.3299,-2.3173,-2.3173,-2.3173,0,0,-2.3151,-2.3146,-2.3159,-2.3171,-2.317,-2.3191,-2.3144,-2.3167,-2.3182,-2.3138,-2.317,-2.3164,-2.3163,-2.3205,-2.3223,-2.3202,-2.3295,-2.3262,-2.3268,-2.327,-2.3294,-2.3306,-2.3316,-2.3176,-2.3176,-2.3175,0,0,-2.3229,-2.3226,-2.326,-2.326,-2.326,-2.3247,-2.3255,-2.3248,-2.3243,-2.3274,-2.3242,-2.3259,-2.3284,-2.3286,-2.329,-2.3369,-2.3343,-2.3373,-2.3423,-2.3449,-2.3459,-2.3468,-2.3497,-2.3508,-2.3379,-2.3379,-2.338,0,-2.3274,-2.3304,-2.328,-2.3306,-2.3312,-2.3274,-2.3308,-2.3309,-2.3313,-2.3318,-2.3295,-2.3327,-2.3323,-2.3365,-2.3385,-2.3389,-2.3398,-2.3374,-2.346,-2.3468,-2.3476,-2.3504,-2.3514,-2.3383,-2.3383,-2.3382,-2.3382,0,-2.3361,-2.3382,-2.3409,-2.3415,-2.3424,-2.3454,-2.3434,-2.3446,-2.3428,-2.3417,-2.345,-2.3445,-2.3456,-2.3465,-2.3447,-2.3504,-2.3492,-2.3465,-2.3424,-2.3492,-2.3518,-2.3528,-2.3389,-2.3387,-2.3386,-2.3385,0,0,-2.3474,-2.3467,-2.3477,-2.348,-2.3477,-2.3493,-2.3521,-2.3532,-2.3544,-2.3548,-2.3571,-2.3593,-2.3569,-2.3573,-2.3555,-2.3578,-2.3642,-2.3548,-2.3548,-2.3567,-2.3706,-2.3727,-2.374,-2.3625,-2.3627,-2.3629,-2.3707,0,-2.355,-2.3599,-2.3578,-2.3628,-2.3648,-2.3612,-2.3637,-2.3638,-2.3629,-2.3644,-2.3634,-2.3651,-2.3616,-2.3619,-2.364,-2.363,-2.367,-2.3624,-2.3647,-2.3648,-2.3649,-2.3753,-2.3775,-2.3849,-2.3716,-2.3718,-2.3719,0,-2.3645,-2.3654,-2.3707,-2.3702,-2.3709,-2.3732,-2.3741,-2.3756,-2.3756,-2.3748,-2.3754,-2.3731,-2.3758,-2.3718,-2.3755,-2.3724,-2.3732,-2.3729,-2.3731,-2.3733,-2.3688,-2.3758,-2.3872,-2.3883,-2.3734,-2.3733,-2.3732,0,-2.3724,-2.3749,-2.3784,-2.3787,-2.3782,-2.3799,-2.3797,-2.3795,-2.3804,-2.3812,-2.3817,-2.3828,-2.3834,-2.3843,-2.3824,-2.3796,-2.3864,-2.3821,-2.3858,-2.3859,-2.3875,-2.3874,-2.3992,-2.3879,-2.3879,-2.3878,-2.3878,0,-2.3812,-2.3846,-2.382,-2.3842,-2.3878,-2.3854,-2.3891,-2.3885,-2.3884,-2.3904,-2.3873,-2.3893,-2.3865,-2.3882,-2.3867,-2.3901,-2.3903,-2.3898,-2.3893,-2.3901,-2.3902,-2.3906,-2.3901,-2.3881,-2.3881,-2.388,-2.388,0,-2.3906,-2.389,-2.3926,-2.3919,-2.3917,-2.3945,-2.3938,-2.3958,-2.3947,-2.3972,-2.3977,-2.396,-2.3978,-2.3959,-2.3976,-2.3966,-2.4011,-2.3999,-2.4012,-2.4009,-2.4047,-2.4044,-2.4173,-2.4189,-2.4064,-2.4065,-2.4066,0,-2.3964,-2.3989,-2.3984,-2.3996,-2.3996,-2.4015,-2.4024,-2.4001,-2.4011,-2.4014,-2.4034,-2.4049,-2.4061,-2.4091,-2.408,-2.4092,-2.4081,-2.4125,-2.4082,-2.409,-2.4083,-2.4082,-2.4085,-2.4134,-2.4135,-2.4137,-2.4138,0,-2.4067,-2.4058,-2.4073,-2.4085,-2.4097,-2.4105,-2.4111,-2.4122,-2.4098,-2.4111,-2.413,-2.4139,-2.4156,-2.4172,-2.4182,-2.4179,-2.4155,-2.4151,-2.416,-2.4169,-2.4176,-2.4174,-2.4036,-2.4148,-2.4147,-2.4146,-2.4146,-2.4145,-2.4145,-2.4167,-2.4167,-2.4185,-2.4187,-2.4193,-2.4212,-2.4204,-2.4219,-2.4232,-2.4217,-2.424,-2.424,-2.4251,-2.4251,-2.4269,-2.425,-2.4263,-2.4267,-2.4271,-2.4277,-2.4172,-2.427,-2.427,-2.427,-2.4269,-2.4269,0,-2.4248,-2.4247,-2.4264,-2.4273,-2.4287,-2.4263,-2.4269,-2.4282,-2.4303,-2.4305,-2.4317,-2.4339,-2.4354,-2.4345,-2.4358,-2.4374,-2.4363,-2.4379,-2.4378,-2.4378,-2.4293,-2.4284,-2.4387,-2.4387,-2.4387,-2.4387,-2.4387,-2.4387,-2.4304,-2.4339,-2.4331,-2.4367,-2.4365,-2.4388,-2.4393,-2.4399,-2.4401,-2.4427,-2.444,-2.4434,-2.4432,-2.4445,-2.4458,-2.4455,-2.4462,-2.4481,-2.4474,-2.4395,-2.4384,-2.4373,-2.4364,-2.4483,-2.4483,-2.4558,-2.4559,-2.4559]}]]